Погода в Алимкенте

Узбекистан     40°57′30″N   69°09′51″E
темп.,
°C
ветер,
м/с
пор.,
м/с
влажн.,
%
обл.,
%
осадки,
мм/ч
давл.,
гПа
погр.,
м
28 июля, ср
ср2823:00+29ссз611210 0.0 1000317
02:00+25юз22260 0.0 100015
05:00+21ююз33290 0.0 100137
08:00+27ююз56190 0.0 1002477
11:00+34юз44160 0.0 10001217
14:00+39з33130 0.0 9972303
17:00+40сз44110 0.0 9962611
20:00+32зсз511160 0.0 997198
29 июля, чт
чт2923:00+28сз24210 0.0 99871
02:00+23ю57260 0.0 1000100
05:00+20ю35290 0.0 100159
08:00+27ююз45200 0.0 1003375
11:00+35з34130 0.0 10021607
14:00+39зсз5590 0.0 10002904
17:00+38сз66110 0.0 9993111
20:00+30ссз591740 0.0 1001131
30 июля, пт
пт3023:00+28с8141863 0.0 1003511
02:00+25ссз3521100 0.0 100378
05:00+22ююз452785 0.0 1006122
08:00+26юз33243 0.0 1008489
11:00+32з33160 0.0 10071556
14:00+36зсз33110 0.0 10042622
17:00+37сз4370 0.0 10032830
20:00+28зюз22110 0.0 100312
31 июля, сб
сб3123:00+23юв23170 0.0 100316
02:00+21ю33200 0.0 100420
05:00+20ююв35270 0.0 100463
08:00+26ююз57210 0.0 1005388
11:00+35ююз45130 0.0 10041110
14:00+38зюз21110 0.0 10012261
17:00+40ссз33100 0.0 10002558
20:00+32з22150 0.0 100011
1 августа, вс
вс123:00+26вюв11200 0.0 100111
02:00+25ююв222212 0.0 100011
05:00+23ю33236 0.0 100119
08:00+29ююз4515100 0.0 1002357
11:00+37юз431154 0.0 10011017
14:00+42зсз4375 0.0 9982814
17:00+41зсз6470 0.0 9972623
20:00+32зюз44105 0.0 99830